Weather History for KIGM - March, 2013

Change the Weather History Date:

Tuesday, March 19, 2013

  Actual Average Record
Temperature  
Mean Temperature 63 °F 52 °F  
Max Temperature 76 °F 66 °F 85 °F (1907)
Min Temperature 49 °F 38 °F 24 °F (1937)
Degree Days  
Heating Degree Days 2 13  
Month to date heating degree days 180 277  
Since 1 July heating degree days 2647 2690  
Cooling Degree Days 0 0  
Month to date cooling degree days 6 0  
Year to date cooling degree days 6 0  
Growing Degree Days 14 (Base 50)    
Moisture  
Dew Point 17 °F    
Average Humidity 18    
Maximum Humidity 26    
Minimum Humidity 9    
Precipitation  
Precipitation 0.00 in 0.02 in 0.50 in (1982)
Month to date precipitation 0.14 0.52  
Year to date precipitation 1.13 2.68  
Sea Level Pressure  
Sea Level Pressure 29.88 in    
Wind  
Wind Speed 7 mph (East)    
Max Wind Speed 15 mph    
Max Gust Speed 21 mph    
Visibility 10 miles    
Events      
T = Trace of Precipitation, MM = Missing Value Source: NWS Daily Summary

Daily Weather History Graph

Daily Weather History Graph

Search for Another Location

Airport or City:

Trip Planner

Search our weather history database for the weather conditions in past years. The results will help you decide how hot, cold, wet, or windy it might be!

Date:

Astronomy

Mar. 19, 2013 Rise Set
Actual Time 6:40 AM MST 6:46 PM MST
Civil Twilight 6:15 AM MST 7:12 PM MST
Nautical Twilight 5:45 AM MST 7:41 PM MST
Astronomical Twilight 5:15 AM MST 8:11 PM MST
Moon 11:46 AM MST (3/19) 1:24 AM MST (3/19)
Length of Visible Light 12h 57m
Length of Day
12h 06m
Waxing Crescent, 51% of the Moon is Illuminated
Mar 19
Waxing Crescent
Mar 27
Full
Apr 2
Last Quarter
Apr 10
New
Apr 18
First Quarter

Hourly Weather History & Observations

Time (MST) Temp. Dew Point Humidity Pressure Visibility Wind Dir Wind Speed Gust Speed Precip Events Conditions
12:51 AM 55.0 °F 16.0 °F 22% 29.83 in 10.0 mi ESE 5.8 mph - N/A   Clear
1:51 AM 55.0 °F 16.0 °F 22% 29.81 in 10.0 mi South 8.1 mph - N/A   Clear
2:51 AM 54.0 °F 16.0 °F 22% 29.81 in 10.0 mi East 4.6 mph - N/A   Clear
3:51 AM 57.0 °F 14.0 °F 18% 29.78 in 10.0 mi ESE 9.2 mph - N/A   Clear
4:51 AM 57.9 °F 14.0 °F 18% 29.78 in 10.0 mi ESE 6.9 mph - N/A   Clear
5:51 AM 55.9 °F 16.0 °F 21% 29.81 in 10.0 mi SE 9.2 mph - N/A   Clear
6:51 AM 53.1 °F 19.0 °F 26% 29.84 in 10.0 mi SE 11.5 mph - N/A   Clear
7:51 AM 57.9 °F 19.9 °F 23% 29.88 in 10.0 mi ESE 10.4 mph - N/A   Clear
8:51 AM 64.0 °F 19.9 °F 18% 29.88 in 10.0 mi Calm Calm - N/A   Clear
9:51 AM 66.9 °F 19.0 °F 16% 29.89 in 10.0 mi Calm Calm - N/A   Clear
10:51 AM 70.0 °F 18.0 °F 14% 29.91 in 10.0 mi NW 5.8 mph - N/A   Clear
11:51 AM 72.0 °F 16.0 °F 12% 29.91 in 10.0 mi Variable 5.8 mph - N/A   Clear
12:51 PM 73.0 °F 15.1 °F 11% 29.89 in 10.0 mi North 8.1 mph - N/A   Clear
1:51 PM 75.0 °F 14.0 °F 10% 29.88 in 10.0 mi North 10.4 mph - N/A   Clear
2:51 PM 73.9 °F 14.0 °F 10% 29.87 in 10.0 mi Variable 4.6 mph - N/A   Clear
3:51 PM 75.9 °F 15.1 °F 10% 29.85 in 10.0 mi Variable 6.9 mph 17.3 mph N/A   Clear
4:51 PM 73.4 °F 15.8 °F 11% 30.01 in 10.0 mi North 10.4 mph - N/A   Clear
5:51 PM 72.0 °F 15.1 °F 11% 29.86 in 10.0 mi North 11.5 mph - N/A   Clear
6:51 PM 66.0 °F 17.1 °F 15% 29.90 in 10.0 mi North 9.2 mph - N/A   Clear
7:51 PM 57.0 °F 17.1 °F 21% 29.93 in 10.0 mi SE 3.5 mph - N/A   Clear
8:51 PM 52.0 °F 18.0 °F 26% 29.94 in 10.0 mi SE 5.8 mph - N/A   Clear
9:51 PM 53.1 °F 19.0 °F 26% 29.95 in 10.0 mi SE 10.4 mph - N/A   Clear
10:51 PM 53.1 °F 19.9 °F 27% 29.96 in 10.0 mi Calm Calm - N/A   Clear
11:51 PM 48.9 °F 19.9 °F 32% 29.95 in 10.0 mi South 3.5 mph - N/A   Clear